FW4250 Weather Reports


Display with metric or nautical units.
time (UTC)temp
F
wind
direction
speed
MPH
gust
MPH
rain 1hr
in
rain 24hr
in
rain mn
in
humidity
%
barometer
mb
20260506025509 59 209 0.0 0.0 0.00 0.03 0.03 76 987.6
20260506025009 60 209 0.0 0.0 0.00 0.03 0.03 75 987.5
20260506024522 60 209 0.0 0.0 0.00 0.03 0.03 74 987.4
20260506024008 61 209 0.0 0.0 0.00 0.03 0.03 74 987.2
20260506023508 61 209 0.0 0.0 0.00 0.03 0.03 73 987.2
20260506023008 61 209 0.0 0.0 0.00 0.03 0.03 73 987.2
20260506022506 61 209 0.0 0.0 0.00 0.03 0.03 72 987.1
20260506022008 62 209 0.0 0.0 0.00 0.03 0.03 72 987.1
20260506021510 62 209 0.0 0.0 0.00 0.03 0.03 71 987.0
20260506021007 62 209 0.0 0.0 0.00 0.03 0.03 71 987.1
20260506020506 62 209 0.0 0.0 0.00 0.03 0.03 70 987.0
20260506020006 63 209 0.0 0.0 0.00 0.03 0.03 70 987.0
20260506015508 63 209 0.0 4.0 0.00 0.03 0.03 70 987.0
20260506015006 63 209 1.0 4.0 0.00 0.03 0.03 70 987.0
20260506014512 63 209 1.0 5.0 0.00 0.03 0.03 69 986.9
20260506014005 64 209 2.0 5.0 0.00 0.03 0.03 69 986.9
20260506013506 64 209 2.0 7.0 0.00 0.03 0.03 69 986.9
20260506013005 64 164 4.0 7.0 0.00 0.03 0.03 68 986.8
20260506012505 64 166 5.0 7.0 0.00 0.03 0.03 67 986.9
20260506012005 64 203 1.0 6.0 0.00 0.03 0.03 68 986.9
20260506011504 64 213 3.0 6.0 0.00 0.03 0.03 68 986.9
20260506011004 64 207 2.0 6.0 0.00 0.03 0.03 68 986.8
20260506010511 64 209 3.0 9.0 0.00 0.03 0.03 67 986.8
20260506010004 64 198 4.0 9.0 0.00 0.03 0.03 67 986.9
20260506005504 64 181 3.0 6.0 0.00 0.03 0.03 67 986.8
20260506005004 64 181 3.0 7.0 0.00 0.03 0.03 67 986.9
20260506004506 64 184 4.0 8.0 0.00 0.03 0.03 67 986.9
20260506004005 64 163 4.0 7.0 0.00 0.03 0.03 68 986.7
20260506003504 64 148 4.0 8.0 0.00 0.03 0.03 68 986.7
20260506003005 64 166 5.0 8.0 0.00 0.03 0.03 67 986.8
20260506002504 65 190 5.0 8.0 0.00 0.03 0.03 66 986.8
20260506002005 65 169 3.0 9.0 0.00 0.03 0.03 64 986.7
20260506001504 65 132 2.0 5.0 0.00 0.03 0.03 64 986.7
20260506001003 65 137 2.0 8.0 0.00 0.03 0.03 63 986.7
20260506000506 65 162 3.0 8.0 0.00 0.03 0.03 63 986.6
20260506000002 65 180 2.0 7.0 0.00 0.03 0.03 64 986.5
20260505235502 65 211 3.0 8.0 0.00 0.03 0.03 63 986.6
20260505235003 65 176 3.0 8.0 0.00 0.03 0.03 63 986.6
20260505234502 65 228 4.0 7.0 0.00 0.03 0.03 63 986.5
20260505234005 65 200 4.0 9.0 0.00 0.03 0.03 63 986.5
20260505233501 65 178 5.0 10.0 0.00 0.03 0.03 62 986.5
20260505233002 66 185 5.0 12.0 0.00 0.03 0.03 62 986.6
20260505232503 67 180 7.0 15.0 0.00 0.03 0.03 59 986.4
20260505232001 68 162 6.0 15.0 0.00 0.03 0.03 59 986.4
20260505231501 68 173 5.0 15.0 0.00 0.03 0.03 61 986.4
20260505231100 68 173 6.0 13.0 0.00 0.03 0.03 59 986.3
20260505230600 68 188 7.0 15.0 0.00 0.03 0.03 60 986.4
20260505230110 68 194 8.0 13.0 0.00 0.03 0.03 60 986.5
20260505225601 67 168 5.0 9.0 0.00 0.03 0.03 60 986.4
20260505225059 67 183 5.0 10.0 0.00 0.03 0.03 60 986.6
20260505224600 67 142 5.0 11.0 0.00 0.03 0.03 61 986.7
20260505224101 66 202 5.0 9.0 0.00 0.03 0.03 62 986.8
20260505223602 66 180 4.0 10.0 0.00 0.03 0.03 61 986.9
20260505223103 67 159 6.0 10.0 0.00 0.03 0.03 58 987.0
20260505222600 68 178 7.0 10.0 0.00 0.03 0.03 59 987.0
20260505222057 66 221 5.0 10.0 0.00 0.03 0.03 61 987.0
20260505221601 66 199 7.0 10.0 0.00 0.03 0.03 61 987.0
20260505221056 66 202 5.0 10.0 0.00 0.03 0.03 60 987.2
20260505220556 67 174 6.0 10.0 0.00 0.03 0.03 59 987.2
20260505220058 67 188 6.0 10.0 0.00 0.03 0.03 59 987.1
20260505215556 67 228 5.0 11.0 0.00 0.03 0.03 59 987.2
20260505215056 67 192 6.0 11.0 0.00 0.03 0.03 60 987.4
20260505214556 66 181 6.0 10.0 0.00 0.03 0.03 61 987.4
20260505214058 66 212 3.0 9.0 0.00 0.03 0.03 60 987.5
20260505213558 67 223 5.0 10.0 0.00 0.03 0.03 59 987.5
20260505213057 67 241 5.0 10.0 0.00 0.03 0.03 60 987.6
20260505212558 67 184 5.0 9.0 0.00 0.03 0.03 62 987.7
20260505212055 66 180 6.0 10.0 0.00 0.03 0.03 61 987.6
20260505211555 66 200 3.0 10.0 0.00 0.03 0.03 63 987.7
20260505211055 66 190 5.0 10.0 0.00 0.03 0.03 63 987.8
20260505210554 66 223 6.0 11.0 0.00 0.03 0.03 63 987.7
20260505210054 66 238 5.0 10.0 0.00 0.03 0.03 64 987.7
20260505205555 65 214 5.0 10.0 0.00 0.03 0.03 64 987.7
20260505205056 65 242 4.0 11.0 0.00 0.03 0.03 64 987.6
20260505204600 65 197 6.0 11.0 0.00 0.03 0.03 63 987.6
20260505204054 65 228 5.0 9.0 0.00 0.03 0.03 62 987.6
20260505203554 65 178 5.0 9.0 0.00 0.03 0.03 61 987.6
20260505203101 66 199 4.0 10.0 0.00 0.03 0.03 61 987.6
20260505202554 65 232 3.0 10.0 0.00 0.03 0.03 62 987.6
20260505202054 65 195 3.0 10.0 0.00 0.03 0.03 61 987.6
20260505201553 65 229 5.0 10.0 0.00 0.03 0.03 60 987.6
20260505201054 65 235 4.0 10.0 0.00 0.03 0.03 60 987.6
20260505200553 66 229 6.0 9.0 0.00 0.03 0.03 59 987.7
20260505200052 66 234 5.0 9.0 0.00 0.03 0.03 59 987.6
20260505195552 66 185 5.0 11.0 0.00 0.03 0.03 62 987.6
20260505195052 66 165 5.0 11.0 0.00 0.03 0.03 60 987.7
20260505194609 65 139 4.0 13.0 0.00 0.03 0.03 61 987.6
20260505194052 65 138 6.0 13.0 0.00 0.03 0.03 61 987.7
20260505193552 66 175 6.0 11.0 0.00 0.03 0.03 60 987.6
20260505193052 67 173 7.0 13.0 0.00 0.03 0.03 59 987.6
20260505192550 68 157 5.0 11.0 0.00 0.03 0.03 62 987.5
20260505192050 66 178 7.0 10.0 0.00 0.03 0.03 63 987.6
20260505191603 66 173 5.0 8.0 0.00 0.03 0.03 63 987.6
20260505191052 65 173 4.0 11.0 0.00 0.03 0.03 61 987.6
20260505190549 66 188 5.0 12.0 0.00 0.03 0.03 62 987.6
20260505190049 66 132 3.0 10.0 0.00 0.03 0.03 61 987.6
20260505185549 66 164 6.0 10.0 0.00 0.03 0.03 61 987.5
20260505185048 65 180 4.0 9.0 0.00 0.03 0.03 64 987.7
20260505184547 65 196 5.0 9.0 0.00 0.03 0.03 64 987.6
20260505184047 65 180 3.0 11.0 0.00 0.03 0.03 65 987.7
20260505183546 65 213 6.0 11.0 0.00 0.03 0.03 65 987.7
20260505183047 65 198 5.0 9.0 0.00 0.03 0.03 65 987.5
20260505182545 65 203 5.0 9.0 0.00 0.03 0.03 64 987.5
20260505182049 66 223 5.0 11.0 0.00 0.03 0.03 65 987.5
20260505181545 65 181 4.0 11.0 0.00 0.03 0.03 66 987.5
20260505181045 65 203 4.0 9.0 0.00 0.03 0.03 66 987.6
20260505180544 65 178 6.0 11.0 0.00 0.03 0.03 65 987.6
20260505180049 65 168 4.0 10.0 0.00 0.03 0.03 67 987.4
20260505175543 65 180 4.0 11.0 0.00 0.03 0.03 67 987.4
20260505175041 64 198 4.0 8.0 0.00 0.03 0.03 68 987.5
20260505174541 64 138 2.0 7.0 0.00 0.03 0.03 70 987.6
20260505174039 64 164 3.0 9.0 0.00 0.03 0.03 68 987.6
20260505173538 63 180 4.0 9.0 0.00 0.03 0.03 70 987.6
20260505173036 63 208 4.0 9.0 0.00 0.03 0.03 72 987.5
20260505172535 62 173 3.0 8.0 0.00 0.03 0.03 72 987.5
20260505172034 62 177 4.0 8.0 0.00 0.03 0.03 74 987.5
20260505171533 61 159 3.0 8.0 0.00 0.03 0.03 77 987.5
20260505171032 60 179 3.0 9.0 0.00 0.03 0.03 78 987.5
20260505170530 60 187 4.0 9.0 0.00 0.03 0.03 82 987.3
20260505170029 59 129 2.0 5.0 0.00 0.03 0.03 85 987.3
20260505165527 58 123 2.0 6.0 0.00 0.03 0.03 89 987.3
20260505165026 57 86 2.0 7.0 0.00 0.03 0.03 93 987.2
20260505164525 56 159 2.0 7.0 0.00 0.03 0.03 93 987.3
20260505164024 55 164 3.0 6.0 0.00 0.03 0.03 94 987.3
20260505163523 54 177 2.0 6.0 0.00 0.03 0.03 93 987.4
20260505163023 54 175 2.0 7.0 0.01 0.03 0.03 94 987.4
20260505162520 54 146 3.0 5.0 0.02 0.03 0.03 94 987.3
20260505162022 54 194 1.0 5.0 0.02 0.03 0.03 94 987.3
20260505161519 54 171 4.0 6.0 0.03 0.03 0.03 94 987.3
20260505161018 54 154 3.0 6.0 0.03 0.03 0.03 94 987.1
20260505160517 53 154 2.0 6.0 0.03 0.03 0.03 94 987.2
20260505153014 54 219 0.0 0.0 0.02 0.02 0.02 93 987.2
20260505152512 53 215 0.0 0.0 0.01 0.01 0.01 92 987.1
20260505152013 54 215 0.0 0.0 0.01 0.01 0.01 90 987.1
20260505151513 54 215 0.0 0.0 0.00 0.00 0.00 88 987.0
20260505151009 54 215 0.0 0.0 0.00 0.00 0.00 85 987.2
20260505150510 54 215 0.0 0.0 0.00 0.00 0.00 85 987.2
20260505140600 51 215 0.0 0.0 0.00 0.00 0.00 88 986.9
20260505140200 51 215 0.0 0.0 0.00 0.00 0.00 88 986.9
20260505124556 50 215 0.0 0.0 0.00 0.00 0.00 89 986.7
20260505124054 50 215 0.0 0.0 0.00 0.00 0.00 88 986.7
20260505123555 50 215 0.0 0.0 0.00 0.00 0.00 88 986.7
20260505123058 50 215 0.0 0.0 0.00 0.00 0.00 88 986.7
20260505122551 50 215 0.0 0.0 0.00 0.00 0.00 88 986.8
20260505122050 50 215 0.0 0.0 0.00 0.00 0.00 88 986.7
20260505121619 50 215 0.0 0.0 0.00 0.00 0.00 88 986.7
20260505121050 50 215 0.0 0.0 0.00 0.00 0.00 88 986.8
20260505120550 50 215 0.0 0.0 0.00 0.00 0.00 88 986.9
20260505120050 50 215 0.0 0.0 0.00 0.00 0.00 88 986.8
20260505115550 50 215 0.0 0.0 0.00 0.00 0.00 87 986.8
20260505115050 50 215 0.0 0.0 0.00 0.00 0.00 87 986.8
20260505114550 50 215 0.0 0.0 0.00 0.00 0.00 88 986.8
20260505114049 50 215 0.0 0.0 0.00 0.00 0.00 88 986.8
20260505113550 50 215 0.0 0.0 0.00 0.00 0.00 88 986.7
20260505113055 50 215 0.0 0.0 0.00 0.00 0.00 89 986.7
20260505112549 50 215 0.0 0.0 0.00 0.00 0.00 89 986.8
20260505112048 50 215 0.0 0.0 0.00 0.00 0.00 89 986.8
20260505111550 49 215 0.0 0.0 0.00 0.00 0.00 89 986.8
20260505111050 49 215 0.0 0.0 0.00 0.00 0.00 88 986.8
20260505110550 49 215 0.0 0.0 0.00 0.00 0.00 88 986.7
20260505102043 50 215 0.0 0.0 0.00 0.00 0.00 87 986.9
20260505101644 50 215 0.0 0.0 0.00 0.00 0.00 87 986.9
20260505101042 50 215 0.0 0.0 0.00 0.00 0.00 87 986.9
20260505100542 50 215 0.0 0.0 0.00 0.00 0.00 87 987.0
20260505100058 50 215 0.0 0.0 0.00 0.00 0.00 87 986.9
20260505095544 50 215 0.0 0.0 0.00 0.00 0.00 87 987.0
20260505095044 50 215 0.0 0.0 0.00 0.00 0.00 87 987.0
20260505094543 51 215 0.0 0.0 0.00 0.00 0.00 87 987.2
20260505094039 51 215 0.0 0.0 0.00 0.00 0.00 86 987.1
20260505093537 51 215 0.0 0.0 0.00 0.00 0.00 86 987.1
20260505093037 51 215 0.0 0.0 0.00 0.00 0.00 86 987.2
20260505092539 51 215 0.0 0.0 0.00 0.00 0.00 86 987.1
20260505092036 51 215 0.0 0.0 0.00 0.00 0.00 86 987.1
20260505091544 52 215 0.0 0.0 0.00 0.00 0.00 86 987.2
20260505091034 52 215 0.0 0.0 0.00 0.00 0.00 86 987.2
20260505090533 52 215 0.0 0.0 0.00 0.00 0.00 86 987.3
20260505090037 52 215 0.0 0.0 0.00 0.00 0.00 85 987.4
20260505085532 52 215 0.0 1.0 0.00 0.00 0.00 85 987.4
20260505085034 52 215 0.0 2.0 0.00 0.00 0.00 85 987.5
20260505084531 52 215 0.0 2.0 0.00 0.00 0.00 85 987.4
20260505084029 53 215 0.0 0.0 0.00 0.00 0.00 84 987.6
20260505083528 53 215 0.0 0.0 0.00 0.00 0.00 84 987.6
20260505083039 53 215 0.0 0.0 0.00 0.00 0.00 84 987.7
20260505082530 53 215 0.0 0.0 0.00 0.00 0.00 84 987.7
20260505082026 53 215 0.0 0.0 0.00 0.00 0.00 84 987.7
20260505081530 53 215 0.0 0.0 0.00 0.00 0.00 84 987.7
20260505081024 53 215 0.0 0.0 0.00 0.00 0.00 83 987.7
20260505080526 54 215 0.0 0.0 0.00 0.00 0.00 83 987.8
20260505080034 54 215 0.0 0.0 0.00 0.00 0.00 82 987.9
20260505075523 54 215 0.0 0.0 0.00 0.00 0.00 82 987.9
20260505075027 54 215 0.0 0.0 0.00 0.00 0.00 82 987.9
20260505074523 54 215 0.0 0.0 0.00 0.00 0.00 82 988.0
20260505074027 54 215 0.0 0.0 0.00 0.00 0.00 82 987.9
20260505073524 54 215 0.0 0.0 0.00 0.00 0.00 82 988.0
20260505073025 54 215 0.0 0.0 0.00 0.00 0.00 82 987.9
20260505072522 54 215 0.0 0.0 0.00 0.00 0.00 82 988.0
20260505072021 54 215 0.0 0.0 0.00 0.00 0.00 82 988.0
20260505071533 54 215 0.0 0.0 0.00 0.00 0.00 82 988.0
20260505071022 54 215 0.0 0.0 0.00 0.00 0.00 82 988.0
20260505070520 54 215 0.0 0.0 0.00 0.00 0.00 82 987.9
20260505070020 54 215 0.0 0.0 0.00 0.00 0.00 82 987.9
20260505065520 54 215 0.0 0.0 0.00 0.00 0.00 82 988.0
20260505065020 54 215 0.0 0.0 0.00 0.00 0.00 82 988.0
20260505064518 54 215 0.0 0.0 0.00 0.00 0.00 82 988.0
20260505064019 54 215 0.0 0.0 0.00 0.00 0.00 82 988.0
20260505063519 54 215 0.0 0.0 0.00 0.00 0.00 82 987.9
20260505063029 54 215 0.0 0.0 0.00 0.00 0.00 82 988.0
20260505062519 54 215 0.0 0.0 0.00 0.00 0.00 82 988.1
20260505062021 54 215 0.0 0.0 0.00 0.00 0.00 82 988.1
20260505061521 54 215 0.0 0.0 0.00 0.00 0.00 82 988.1
20260505061022 54 215 0.0 0.0 0.00 0.00 0.00 82 988.1
20260505060517 54 215 0.0 0.0 0.00 0.00 0.00 82 988.1
20260505060017 54 215 0.0 0.0 0.00 0.00 0.00 82 988.0
20260505055518 54 215 0.0 0.0 0.00 0.00 0.00 82 988.0
20260505055018 54 215 0.0 0.0 0.00 0.00 0.00 81 988.0
20260505054516 54 215 0.0 0.0 0.00 0.00 0.00 81 988.1
20260505054018 54 215 0.0 0.0 0.00 0.00 0.00 81 988.2
20260505053517 54 215 0.0 0.0 0.00 0.00 0.00 81 988.1
20260505053017 54 215 0.0 0.0 0.00 0.00 0.00 80 988.0
20260505052517 54 215 0.0 0.0 0.00 0.00 0.00 80 988.0
20260505052019 54 215 0.0 0.0 0.00 0.00 0.00 80 988.0
20260505051532 54 215 0.0 3.0 0.00 0.00 0.00 80 988.1
20260505051016 54 215 0.0 3.0 0.00 0.00 0.00 80 988.0
20260505050520 54 215 1.0 3.0 0.00 0.00 0.00 80 988.1
20260505041524 55 215 0.0 0.0 0.00 0.00 0.00 78 988.2
20260505041014 55 215 0.0 0.0 0.00 0.00 0.00 79 988.2
20260505040514 55 215 0.0 0.0 0.00 0.00 0.00 78 988.2
20260505040015 55 215 0.0 0.0 0.00 0.00 0.00 78 988.2
20260505035517 55 215 0.0 1.0 0.00 0.00 0.00 78 988.1
20260505035014 55 215 0.0 2.0 0.00 0.00 0.00 77 988.1
20260505034514 56 215 0.0 2.0 0.00 0.00 0.00 77 988.1
20260505034014 56 215 0.0 1.0 0.00 0.00 0.00 76 987.9
20260505033514 56 215 0.0 0.0 0.00 0.00 0.00 76 988.1
20260505033014 56 215 0.0 2.0 0.00 0.00 0.00 76 988.0
20260505032517 56 215 0.0 4.0 0.00 0.00 0.00 76 988.1
20260505032012 56 215 2.0 6.0 0.00 0.00 0.00 75 987.9
20260505031524 56 214 1.0 6.0 0.00 0.00 0.00 75 987.9
20260505031012 56 224 3.0 6.0 0.00 0.00 0.00 75 987.8
20260505030512 57 224 4.0 7.0 0.00 0.00 0.00 75 987.7
20260505030012 57 224 3.0 7.0 0.00 0.00 0.00 75 987.7